This is the latest recevied weather packets stored in our database for station/object KC9GSD. If no packets are shown the sender has not sent any weather packets the latest 1 day(s).
| Time | Temp. | Humidity | Pressure | Rain* | Wind** | Luminosity | Snow |
|---|---|---|---|---|---|---|---|
| 1778030979 | 20° C | 67% | 1011.7 hPa | 0 mm | 0 m/s | 0 W/m² | - |
| 1778030676 | 20° C | 65% | 1011.5 hPa | 0 mm | 0 m/s | 0 W/m² | - |
| 1778030372 | 20° C | 66% | 1011.7 hPa | 0 mm | 0 m/s | 0 W/m² | - |
| 1778030070 | 20° C | 67% | 1011.7 hPa | 0 mm | 0 m/s | 0 W/m² | - |
| 1778029767 | 20° C | 66% | 1011.6 hPa | 0 mm | 0 m/s | 0 W/m² | - |
| 1778029466 | 20° C | 63% | 1011.4 hPa | 0 mm | 0 m/s | 0 W/m² | - |
| 1778029161 | 19.44° C | 66% | 1011.4 hPa | 0 mm | 0 m/s | 0 W/m² | - |
| 1778028859 | 20° C | 66% | 1011.3 hPa | 0 mm | 0 m/s | 0 W/m² | - |
| 1778028554 | 20° C | 65% | 1011.4 hPa | 0 mm | 0 m/s | 0 W/m² | - |
| 1778028253 | 20° C | 64% | 1011.6 hPa | 0 mm | 0.45 m/s, 153° | 0 W/m² | - |
| 1778027948 | 20° C | 63% | 1011.5 hPa | 0 mm | 0 m/s | 1 W/m² | - |
| 1778027644 | 20.56° C | 67% | 1011.4 hPa | 0 mm | 0 m/s | 1 W/m² | - |
| 1778027341 | 20.56° C | 62% | 1011.5 hPa | 0 mm | 1.34 m/s, 183° | 2 W/m² | - |
| 1778027037 | 20.56° C | 65% | 1011.6 hPa | 0 mm | 0 m/s | 2 W/m² | - |
| 1778026733 | 20.56° C | 61% | 1011.5 hPa | 0 mm | 0.45 m/s, 218° | 4 W/m² | - |
| 1778026430 | 20.56° C | 64% | 1011.6 hPa | 0 mm | 0 m/s | 6 W/m² | - |
| 1778026133 | 20.56° C | 63% | 1011.5 hPa | 0 mm | 0 m/s | 8 W/m² | - |
| 1778025825 | 21.11° C | 61% | 1011.8 hPa | 0 mm | 0 m/s | 11 W/m² | - |
| 1778025521 | 21.11° C | 61% | 1011.9 hPa | 0 mm | 0.45 m/s, 146° | 13 W/m² | - |
| 1778025219 | 21.11° C | 62% | 1011.9 hPa | 0 mm | 0 m/s | 18 W/m² | - |
| 1778024916 | 21.11° C | 59% | 1012 hPa | 0 mm | 0 m/s | 25 W/m² | - |
| 1778024614 | 21.11° C | 60% | 1012 hPa | 0 mm | 0.45 m/s, 146° | 28 W/m² | - |
| 1778024316 | 21.11° C | 59% | 1012 hPa | 0 mm | 0 m/s | 34 W/m² | - |
| 1778024008 | 21.11° C | 60% | 1012 hPa | 0 mm | 0.45 m/s, 132° | 44 W/m² | - |
| 1778023705 | 21.67° C | 60% | 1011.9 hPa | 0 mm | 0.45 m/s, 163° | 50 W/m² | - |
* Rain latest hour (hover to see other rain measurements)
** Current wind speed in m/s (hover to see current wind gust speed)